1998-067HZ

Last updated on Fri May 20 2016 09:36:28 GMT+0000 (Coordinated Universal Time)

1 41479U 98067HZ 16141.19305442 .00018433 00000-0 27206-3 0 9995 2 41479 51.6429 197.6700 0002105 222.9897 227.6390 15.55409289 446

Satellite not in orbit